EW3775 Weather Reports


Display with metric or nautical units.
time (UTC)temp
F
wind
direction
speed
MPH
gust
MPH
rain 1hr
in
rain 24hr
in
rain mn
in
humidity
%
barometer
mb
20171211054936 29 223 4.0 10.0 0.00 0.00 0.00 69 1011.0
20171211053419 30 221 5.0 14.0 0.00 0.00 0.00 68 1011.1
20171211051936 30 228 3.0 10.0 0.00 0.00 0.00 68 1011.2
20171211050422 30 239 4.0 7.0 0.00 0.00 0.00 68 1011.2
20171211044918 30 238 3.0 6.0 0.00 0.00 0.00 67 1011.2
20171211043437 30 233 5.0 9.0 0.00 0.00 0.00 67 1011.2
20171211041917 30 255 5.0 10.0 0.00 0.00 0.00 67 1011.2
20171211040436 30 228 6.0 10.0 0.00 0.00 0.00 66 1011.1
20171211034933 30 191 3.0 9.0 0.00 0.00 0.00 67 1011.0
20171211033436 30 195 4.0 10.0 0.00 0.00 0.00 66 1010.9
20171211031928 30 190 2.0 8.0 0.00 0.00 0.00 66 1010.9
20171211030431 30 224 3.0 10.0 0.00 0.00 0.00 66 1010.8
20171211024928 30 214 3.0 12.0 0.00 0.00 0.00 66 1010.6
20171211023425 30 314 4.0 10.0 0.00 0.00 0.00 66 1010.6
20171211021925 30 219 4.0 12.0 0.00 0.00 0.00 66 1010.8
20171211020424 30 219 4.0 7.0 0.00 0.00 0.00 66 1010.8
20171211014920 30 244 4.0 13.0 0.00 0.00 0.00 65 1010.6
20171211013423 31 249 5.0 14.0 0.00 0.00 0.00 64 1010.6
20171211011919 31 251 3.0 7.0 0.00 0.00 0.00 64 1010.6
20171211010423 31 210 6.0 10.0 0.00 0.00 0.00 63 1010.5
20171211004919 31 203 5.0 12.0 0.00 0.00 0.00 64 1010.5
20171211003418 31 181 4.0 10.0 0.00 0.00 0.00 65 1010.5
20171211001918 31 268 5.0 12.0 0.00 0.00 0.00 67 1010.4
20171211000437 31 227 7.0 13.0 0.00 0.00 0.00 68 1010.4
20171210234918 31 188 5.0 9.0 0.00 0.00 0.00 70 1010.3
20171210233428 31 224 5.0 9.0 0.00 0.00 0.00 72 1010.3
20171210231924 31 188 3.0 8.0 0.00 0.00 0.00 74 1010.3
20171210230427 30 237 5.0 11.0 0.00 0.00 0.00 76 1010.1
20171210224922 30 235 3.0 5.0 0.00 0.00 0.00 77 1010.1
20171210223421 30 200 1.0 4.0 0.00 0.00 0.00 76 1009.9
20171210221922 30 198 1.0 3.0 0.00 0.00 0.00 75 1009.9
20171210220420 30 212 2.0 3.0 0.00 0.00 0.00 74 1009.7
20171210214922 30 240 1.0 4.0 0.00 0.00 0.00 73 1009.7
20171210213421 30 230 3.0 6.0 0.00 0.00 0.00 72 1009.5
20171210211918 31 262 2.0 5.0 0.00 0.00 0.00 71 1009.3
20171210210419 31 233 2.0 5.0 0.00 0.00 0.00 71 1009.2
20171210204936 31 247 4.0 9.0 0.00 0.00 0.00 70 1009.2
20171210203435 31 313 3.0 5.0 0.00 0.00 0.00 70 1009.1
20171210201935 31 295 4.0 8.0 0.00 0.00 0.00 69 1009.1
20171210200434 31 215 5.0 8.0 0.00 0.00 0.00 69 1009.0
20171210194935 31 203 4.0 8.0 0.00 0.00 0.00 69 1009.1
20171210193434 31 292 5.0 10.0 0.00 0.00 0.00 68 1009.2
20171210191930 31 218 3.0 16.0 0.00 0.00 0.00 67 1009.0
20171210190432 31 220 4.0 15.0 0.00 0.00 0.00 66 1009.0
20171210184929 32 297 7.0 13.0 0.00 0.00 0.00 65 1009.0
20171210183427 32 285 5.0 12.0 0.00 0.00 0.00 67 1008.9
20171210181928 33 218 4.0 12.0 0.00 0.00 0.00 71 1008.7
20171210180425 33 302 7.0 15.0 0.00 0.00 0.00 70 1008.5
20171210174926 32 213 5.0 12.0 0.00 0.00 0.00 78 1008.4
20171210173424 32 209 5.0 11.0 0.00 0.00 0.00 73 1008.4
20171210171921 32 216 5.0 9.0 0.00 0.00 0.00 72 1008.3
20171210170423 32 256 4.0 10.0 0.00 0.00 0.00 73 1008.4
20171210164920 31 228 6.0 16.0 0.00 0.00 0.00 75 1008.5
20171210163423 31 274 2.0 5.0 0.00 0.00 0.00 81 1008.6
20171210161920 31 223 4.0 10.0 0.00 0.00 0.00 77 1008.9
20171210160418 30 221 5.0 11.0 0.00 0.00 0.00 79 1008.9
20171210154919 30 222 3.0 12.0 0.00 0.00 0.00 79 1008.9
20171210153437 30 220 4.0 11.0 0.00 0.00 0.00 78 1009.0
20171210151934 30 257 5.0 10.0 0.00 0.00 0.00 77 1008.9
20171210150435 29 228 3.0 7.0 0.00 0.00 0.00 78 1008.8
20171210144932 29 239 2.0 7.0 0.00 0.00 0.00 78 1008.7
20171210143434 29 185 4.0 9.0 0.00 0.00 0.00 79 1008.7
20171210141932 28 229 3.0 6.0 0.00 0.00 0.00 79 1008.5
20171210140430 28 183 3.0 6.0 0.00 0.00 0.00 80 1008.4
20171210134931 27 220 4.0 7.0 0.00 0.00 0.00 81 1008.3
20171210133431 27 246 2.0 6.0 0.00 0.00 0.00 82 1007.9
20171210131930 26 312 1.0 6.0 0.00 0.00 0.00 83 1007.8
20171210130433 26 202 5.0 7.0 0.00 0.00 0.00 83 1007.4
20171210124931 26 235 2.0 4.0 0.00 0.00 0.00 83 1007.5
20171210123435 26 263 2.0 7.0 0.00 0.00 0.00 82 1007.4
20171210121933 26 197 2.0 8.0 0.00 0.00 0.00 82 1007.1
20171210120433 26 183 2.0 11.0 0.00 0.00 0.00 82 1006.9
20171210114934 26 191 4.0 9.0 0.00 0.00 0.00 82 1006.8
20171210113432 26 224 4.0 8.0 0.00 0.00 0.00 83 1006.6
20171210111934 26 212 4.0 10.0 0.00 0.00 0.00 83 1006.5
20171210110431 25 226 3.0 7.0 0.00 0.00 0.00 87 1006.4
20171210104930 23 283 1.0 3.0 0.00 0.00 0.00 88 1006.1
20171210103434 23 343 1.0 3.0 0.00 0.00 0.00 88 1006.0
20171210101934 22 314 0.0 2.0 0.00 0.00 0.00 89 1005.8
20171210100419 22 349 0.0 2.0 0.00 0.00 0.00 88 1005.6
20171210094937 22 349 1.0 2.0 0.00 0.00 0.00 86 1005.5
20171210093438 23 316 0.0 2.0 0.00 0.00 0.00 86 1005.5
20171210090436 22 214 1.0 4.0 0.00 0.00 0.00 90 1005.4
20171210084934 22 359 0.0 1.0 0.00 0.00 0.00 91 1005.4
20171210083418 21 359 0.0 1.0 0.00 0.00 0.00 91 1005.6
20171210081918 21 359 0.0 1.0 0.00 0.00 0.00 91 1005.5
20171210080422 21 359 0.0 0.0 0.00 0.00 0.00 91 1005.5
20171210074921 21 359 0.0 0.0 0.00 0.00 0.00 91 1005.5
20171210073422 21 359 1.0 2.0 0.00 0.00 0.00 91 1005.3
20171210071925 21 359 0.0 2.0 0.00 0.00 0.00 91 1005.4
20171210070425 21 359 0.0 1.0 0.00 0.00 0.00 91 1005.1
20171210064927 20 8 0.0 1.0 0.00 0.00 0.00 91 1005.2
20171210063430 19 4 0.0 2.0 0.00 0.00 0.00 91 1004.9
20171210061928 19 4 0.0 0.0 0.00 0.00 0.00 91 1004.8
20171210060434 19 4 0.0 0.0 0.00 0.00 0.00 91 1004.8